User: anonymous   Login
Location: Unspecified
(0.0000°N, 0.0000°E)
Time: 23:49:26
(UTC+00:00)
Language:

ANTELSAT - Orbit

View from above orbital plane
View from above orbital plane
View from above satellite
View from above satellite

Ground track
Ground track

The orbit data is extracted from the following two-line orbital elements,

1 40034U 14033AA  17349.22417324  .00000277  00000-0  48694-4 0  9992
2 40034  97.8345 227.2922 0060267  70.8073 289.9645 14.73826476187592
Epoch (UTC): 15 December 2017 05:22:48
Eccentricity: 0.0060267
inclination: 97.8345°
perigee height: 606 km
apogee height: 691 km
right ascension of ascending node: 227.2922°
argument of perigee: 70.8073°
revolutions per day: 14.73826476
mean anomaly at epoch: 289.9645°
orbit number at epoch: 18759

The dashed part of the orbit path shows where the satellite is in the earth's shadow,  

DLR